Content
SEND FEEDBACK

Daily
Averages
Monthly
Summary
United States of America

BRADSHAW, NEBRASKA


Home > North America > United States > Nebraska
Elevation: 1720 feet     Latitude: 40 53N     Longitude: 097 45W

WEATHER
 
SELECT A DAY
Number of Records: 318,447;   Date Range: 1/14/02 - 10/23/14
 
SHARE

PRINT THIS DATA

[ ← Previous Day ]
WEATHER ALMANAC - JANUARY 31, 2013
[ Next Day → ]
[ °C ]   °F
Weather ElementAverageHighLow
Temperature11 °F17.6 °F (12:35 am)5 °F (7:55 pm)
Dewpoint1.5 °F14 °F (12:35 am)-4 °F (8:55 pm)
Humidity66.1 %86 % (12:35 am)49 % (3:35 pm)
Barometer30.18 in30.38 in (10:55 pm)29.92 in (12:35 am)
Wind Speed8.5 mph27.6 mph (12:35 pm)
Wind Gust33.4 mph (9:15 am)
Weather ElementAverage
Visibility10 mi
Wind DirectionSSE (148.4 °)

Weather ElementTotal
Precipitation---
Heating Degree Days53.7 (Base 65)
Averaged from 68 records on January 31, 2013
WEATHER CONDITIONS BREAKOUT
WIND DIRECTION BREAKOUT
WEATHER BY HOUR - JANUARY 31, 2013
[ °C ]   °F
Local TimeTemperatureDewpointHumidityBarometerVisibilityWind DirectionWind SpeedGust SpeedPrecipitationEventsConditions
12:35 AM17.6 °F14.0 °F86 %29.92 in10.0 miCalmOvercast
12:55 AM17.6 °F12.2 °F79 %29.93 in10.0 miCalmOvercast
1:15 AM15.8 °F10.4 °F79 %29.92 in10.0 miCalmSnowLight Snow
1:35 AM15.8 °F10.4 °F79 %29.93 in10.0 miCalmOvercast
1:55 AM15.8 °F10.4 °F79 %29.94 in10.0 miCalmOvercast
2:15 AM15.8 °F8.6 °F73 %29.93 in10.0 miCalmOvercast
2:35 AM15.8 °F10.4 °F79 %29.94 in10.0 miCalmOvercast
2:55 AM15.8 °F8.6 °F73 %29.93 in10.0 miCalmOvercast
3:15 AM14.0 °F8.6 °F79 %29.95 in10.0 miCalmOvercast
3:35 AM14.0 °F6.8 °F73 %29.96 in10.0 miCalmOvercast
3:55 AM14.0 °F6.8 °F73 %29.97 in10.0 miCalmOvercast
4:15 AM14.0 °F6.8 °F73 %29.96 in10.0 miCalmOvercast
4:35 AM14.0 °F5.0 °F67 %29.97 in10.0 miCalmOvercast
4:55 AM12.2 °F5.0 °F73 %29.99 in10.0 miCalmMostly Cloudy
5:15 AM12.2 °F5.0 °F73 %30.00 in10.0 miCalmMostly Cloudy
5:35 AM10.4 °F5.0 °F79 %30.00 in10.0 miCalmMostly Cloudy
5:55 AM12.2 °F5.0 °F73 %30.01 in10.0 miCalmMostly Cloudy
6:15 AM12.2 °F5.0 °F73 %30.01 in10.0 miCalmMostly Cloudy
6:55 AM12.2 °F5.0 °F73 %30.03 in10.0 miCalmOvercast
7:15 AM12.2 °F5.0 °F73 %30.05 in10.0 miCalmOvercast
7:35 AM12.2 °F5.0 °F73 %30.06 in10.0 miNorthOvercast
8:15 AM10.4 °F3.2 °F73 %30.09 in10.0 miNorthOvercast
8:35 AM10.4 °F1.4 °F67 %30.10 in10.0 miNorthOvercast
8:55 AM10.4 °F1.4 °F67 %30.13 in10.0 miNorthOvercast
9:15 AM10.4 °F-0.4 °F62 %30.14 in10.0 miNNW (340°)21.9 mph33.4 mphOvercast
9:35 AM10.4 °F-0.4 °F62 %30.16 in10.0 miNNW (340°)18.4 mph31.1 mphMostly Cloudy
9:55 AM10.4 °F-0.4 °F62 %30.17 in10.0 miNNW (340°)19.6 mph26.5 mphClear
10:15 AM10.4 °F-0.4 °F62 %30.19 in10.0 miNNW (340°)18.4 mph32.2 mphPartly Cloudy
10:35 AM10.4 °F-0.4 °F62 %30.21 in10.0 miNNW (340°)18.4 mph24.2 mphScattered Clouds
10:55 AM10.4 °F-0.4 °F62 %30.22 in10.0 miNNW (330°)21.9 mph26.5 mphScattered Clouds
11:15 AM10.4 °F-0.4 °F62 %30.23 in10.0 miNNW (340°)23.0 mph32.2 mphClear
11:35 AM10.4 °F-0.4 °F62 %30.24 in10.0 miNNW (340°)21.9 mph32.2 mphPartly Cloudy
11:55 AM10.4 °F-0.4 °F62 %30.24 in10.0 miNNW (340°)21.9 mph29.9 mphClear
12:15 PM10.4 °F-0.4 °F62 %30.25 in10.0 miNNW (340°)23.0 mph29.9 mphPartly Cloudy
12:35 PM10.4 °F-0.4 °F62 %30.25 in10.0 miNNW (330°)27.6 mph31.1 mphClear
12:55 PM12.2 °F-0.4 °F57 %30.25 in10.0 miNNW (330°)24.2 mph31.1 mphClear
1:15 PM12.2 °F-0.4 °F57 %30.25 in10.0 miNW (320°)24.2 mph33.4 mphClear
1:35 PM12.2 °F-0.4 °F57 %30.25 in10.0 miNW (320°)24.2 mph28.8 mphClear
1:55 PM14.0 °F-0.4 °F53 %30.26 in10.0 miNNW (340°)24.2 mph31.1 mphClear
2:15 PM14.0 °F-0.4 °F53 %30.27 in10.0 miNNW (340°)21.9 mph28.8 mphClear
2:35 PM14.0 °F-0.4 °F53 %30.26 in10.0 miNNW (330°)23.0 mph28.8 mphClear
2:55 PM14.0 °F-0.4 °F53 %30.26 in10.0 miNNW (340°)19.6 mphClear
3:15 PM12.2 °F-2.2 °F53 %30.27 in10.0 miNNW (340°)15.0 mph20.7 mphClear
3:35 PM14.0 °F-2.2 °F49 %30.28 in10.0 miNNW (330°)19.6 mph26.5 mphClear
3:55 PM14.0 °F-0.4 °F53 %30.29 in10.0 miNNW (330°)16.1 mph19.6 mphClear
4:15 PM12.2 °F-2.2 °F53 %30.29 in10.0 miNNW (340°)12.7 mph20.7 mphClear
4:35 PM12.2 °F-2.2 °F53 %30.30 in10.0 miNNW (330°)16.1 mph21.9 mphClear
4:55 PM12.2 °F-2.2 °F53 %30.30 in10.0 miNW (320°)16.1 mphClear
5:15 PM12.2 °F-2.2 °F53 %30.30 in10.0 miNNW (340°)10.4 mphClear
5:35 PM10.4 °F-2.2 °F57 %30.31 in10.0 miNNW (330°)16.1 mphClear
5:55 PM10.4 °F-2.2 °F57 %30.31 in10.0 miNNW (340°)8.1 mphClear
6:15 PM8.6 °F-2.2 °F62 %30.31 in10.0 miNorth (350°)6.9 mphClear
6:35 PM8.6 °F-2.2 °F62 %30.31 in10.0 miNorth (350°)4.6 mphClear
6:55 PM8.6 °F-2.2 °F62 %30.32 in10.0 miCalmClear
7:15 PM6.8 °F-2.2 °F67 %30.32 in10.0 miNorth (350°)5.8 mphClear
7:35 PM6.8 °F-2.2 °F67 %30.34 in10.0 miCalmClear
7:55 PM5.0 °F-2.2 °F72 %30.34 in10.0 miCalmClear
8:15 PM5.0 °F-2.2 °F72 %30.34 in10.0 miCalmClear
8:35 PM5.0 °F-2.2 °F72 %30.34 in10.0 miCalmClear
8:55 PM5.0 °F-4.0 °F66 %30.35 in10.0 miCalmClear
9:15 PM5.0 °F-2.2 °F72 %30.37 in10.0 miCalmClear
9:35 PM5.0 °F-2.2 °F72 %30.37 in10.0 miCalmClear
9:55 PM5.0 °F-2.2 °F72 %30.37 in10.0 miCalmClear
10:15 PM5.0 °F-2.2 °F72 %30.37 in10.0 miCalmClear
10:35 PM5.0 °F-2.2 °F72 %30.37 in10.0 miCalmMostly Cloudy
10:55 PM6.8 °F-2.2 °F67 %30.38 in10.0 miCalmOvercast
11:35 PM6.8 °F-0.4 °F72 %30.37 in10.0 miCalmOvercast
11:55 PM8.6 °F-2.2 °F62 %30.36 in10.0 miCalmOvercast
Hourly data recorded from KJYR, located miles away from Bradshaw, Nebraska







STORIES FROM OUR PARTNERS